Regional Weather Roundup
Issued by NWS

Home | Current Version | Previous Version | Graphics & Text | Print | Product List | Glossary Off
Versions: 1 2 3 4 5 6 7 8 9 10 11 12 13 14 15 16 17 18 19 20 21 22 23 24 25 26 27 28 29 30 31 32 33 34 35 36 37 38 39 40 41 42 43 44 45 46 47 48 49 50

626
ASUS43 KFSD 181402
RWRSD

WEATHER ROUNDUP FOR SOUTH DAKOTA
NATIONAL WEATHER SERVICE SIOUX FALLS SD
800 AM CST THU JAN 18 2018

NOTE: "FAIR" INDICATES FEW OR NO CLOUDS BELOW 12,000 FEET WITH NO
SIGNIFICANT WEATHER AND/OR OBSTRUCTIONS TO VISIBILITY.


SDZ001>005-009-010-012>017-181500-
NORTHWEST AND NORTH CENTRAL SOUTH DAKOTA

CITY           SKY/WX    TMP DP  RH WIND       PRES   REMARKS
BUFFALO          N/A     35  22  58 W9        29.79F WCI  28
FAITH            N/A     31  21  66 W9        29.86S WCI  23
MOBRIDGE       MOCLDY    22  17  81 CALM      29.82F
$$

SDZ012>016-024>037-041>051-057-063-072>074-181500-
SOUTHWEST AND SOUTH CENTRAL SOUTH DAKOTA

CITY           SKY/WX    TMP DP  RH WIND       PRES   REMARKS
RAPID CTY ARPT CLOUDY    35  16  45 NW5       29.91R
PIERRE         PTCLDY    23  20  88 SW6       29.88F WCI  16
CUSTER         CLOUDY    38  10  31 W10       29.96S
ELLSWORTH AFB  CLOUDY    29  17  60 SW6       29.89R WCI  23
PHILIP         CLOUDY    27  21  78 W12       29.90R WCI  17
PINE RIDGE     CLOUDY    36  22  56 W7        29.97R
SPEARFISH        N/A     43  16  33 W6        29.90F
WINNER         FAIR      32  22  66 SW12      29.89F WCI  23
$$

SDZ004>011-016>023-039-040-181500-
NORTHEAST SOUTH DAKOTA

CITY           SKY/WX    TMP DP  RH WIND       PRES   REMARKS
ABERDEEN       CLEAR     16  14  92 S8        29.86F WCI   5
WATERTOWN      CLOUDY    14  12  92 SE3       29.87S
BROOKINGS      CLOUDY    17  14  88 SE3       29.90S
SISSETON         N/A     34  22  61 NW9       29.81R WCI  27
$$

SDZ017-020-022-023-036>040-048>070-181500-
SOUTHEAST SOUTH DAKOTA

CITY           SKY/WX    TMP DP  RH WIND       PRES   REMARKS
SIOUX FALLS    CLOUDY    13  12  96 CALM      29.94F
HURON          CLEAR     19  16  88 S6        29.90S WCI  11
CHAMBERLAIN    CLEAR     25  22  88 CALM      29.90S
MITCHELL       CLEAR     15  13  91 S8        29.93F WCI   4
YANKTON        CLOUDY    14  12  92 E7        29.96F WCI   4
$$

ABBREVIATIONS USED IN REMARKS
   TC - TEMPERATURE IN CELSIUS
  WCI - WIND CHILL INDEX
   HX - HEAT INDEX
  VSB - VISIBILITY





USA.gov is the U.S. government's official web portal to all federal, state and local government web resources and services.